,,,PA_Meas_PMT16A,,PR_Meas_QMR101_102,,RH_Meas_QMH101,,SR_Meas_QMS101,,TA_Meas_QMH101,,GenWind,,GenWind,
date,time,status,PA,status,PR,status,RH,status,SR,status,TA,status,DirAvg,status,SpdAvg,
2013-03-02, 00:00:05,VALID,1009.82,VALID,0,VALID,104,VALID,0,VALID,24.3956,VALID,324,VALID,0.294141,
2013-03-02, 00:01:05,VALID,1009.8,VALID,0,VALID,104,VALID,0,VALID,24.3761,VALID,324,VALID,0.158203,
2013-03-02, 00:02:05,VALID,1009.78,VALID,0,VALID,104,VALID,0,VALID,24.3761,VALID,324,VALID,0.176172,
2013-03-02, 00:03:05,VALID,1009.79,VALID,0,VALID,104,VALID,0,VALID,24.3566,VALID,324,VALID,0.0871094,
2013-03-02, 00:04:05,VALID,1009.78,VALID,0,VALID,104,VALID,0,VALID,24.3352,VALID,324,VALID,0,
2013-03-02, 00:05:05,VALID,1009.78,VALID,0,VALID,104,VALID,0,VALID,24.2963,VALID,324,VALID,0,
2013-03-02, 00:06:05,VALID,1009.76,VALID,0,VALID,104,VALID,0,VALID,24.2786,VALID,324,VALID,0,
2013-03-02, 00:07:05,VALID,1009.76,VALID,0,VALID,104,VALID,0,VALID,24.2591,VALID,324,VALID,0,
2013-03-02, 00:08:05,VALID,1009.75,VALID,0,VALID,104,VALID,0,VALID,24.2591,VALID,324,VALID,0,
2013-03-02, 00:09:05,VALID,1009.74,VALID,0,VALID,104,VALID,0,VALID,24.2202,VALID,324,VALID,0,
2013-03-02, 00:10:05,VALID,1009.74,VALID,0,VALID,104,VALID,0,VALID,24.1793,VALID,324,VALID,0,
2013-03-02, 00:11:05,VALID,1009.72,VALID,0,VALID,104,VALID,0,VALID,24.1617,VALID,323,VALID,0,
2013-03-02, 00:12:05,VALID,1009.72,VALID,0,VALID,104,VALID,0,VALID,24.1404,VALID,324,VALID,0,
2013-03-02, 00:13:05,VALID,1009.72,VALID,0,VALID,104,VALID,0,VALID,24.1209,VALID,323,VALID,0,
2013-03-02, 00:14:05,VALID,1009.7,VALID,0,VALID,104,VALID,0,VALID,24.1014,VALID,324,VALID,0,
2013-03-02, 00:15:05,VALID,1009.66,VALID,0,VALID,104,VALID,0,VALID,24.1032,VALID,325,VALID,0,
2013-03-02, 00:16:05,VALID,1009.67,VALID,0,VALID,104,VALID,0,VALID,24.1227,VALID,323,VALID,0,
2013-03-02, 00:17:05,VALID,1009.67,VALID,0,VALID,104,VALID,0,VALID,24.1014,VALID,325,VALID,0,
2013-03-02, 00:18:05,VALID,1009.64,VALID,0,VALID,104,VALID,0,VALID,24.1032,VALID,324,VALID,0,
2013-03-02, 00:19:05,VALID,1009.63,VALID,0,VALID,104,VALID,0,VALID,24.1227,VALID,323,VALID,0,
2013-03-02, 00:20:05,VALID,1009.61,VALID,0,VALID,104,VALID,0,VALID,24.1227,VALID,324,VALID,0,
2013-03-02, 00:21:05,VALID,1009.59,VALID,0,VALID,104,VALID,0,VALID,24.1032,VALID,324,VALID,0,
2013-03-02, 00:22:05,VALID,1009.58,VALID,0,VALID,104,VALID,0,VALID,24.1032,VALID,324,VALID,0,
2013-03-02, 00:23:05,VALID,1009.57,VALID,0,VALID,104,VALID,0,VALID,24.0837,VALID,323,VALID,0,
2013-03-02, 00:24:05,VALID,1009.56,VALID,0,VALID,104,VALID,0.112112,VALID,24.0624,VALID,324,VALID,0,
2013-03-02, 00:25:05,VALID,1009.57,VALID,0,VALID,104,VALID,0,VALID,24.0837,VALID,324,VALID,0,
2013-03-02, 00:26:05,VALID,1009.55,VALID,0,VALID,104,VALID,0,VALID,24.0819,VALID,323,VALID,0,
2013-03-02, 00:27:05,VALID,1009.54,VALID,0,VALID,104,VALID,0,VALID,24.1032,VALID,324,VALID,0.217578,
2013-03-02, 00:28:05,VALID,1009.51,VALID,0,VALID,104,VALID,0,VALID,24.0624,VALID,324,VALID,0.195703,
2013-03-02, 00:29:05,VALID,1009.51,VALID,0,VALID,104,VALID,0,VALID,24.0643,VALID,324,VALID,0.155859,
2013-03-02, 00:30:05,VALID,1009.53,VALID,0,VALID,104,VALID,0,VALID,24.0448,VALID,323,VALID,0.0527344,
2013-03-02, 00:31:05,VALID,1009.52,VALID,0,VALID,104,VALID,0,VALID,24.0253,VALID,325,VALID,0.0230469,
2013-03-02, 00:32:05,VALID,1009.53,VALID,0,VALID,104,VALID,0,VALID,24.0058,VALID,323,VALID,0.178125,
2013-03-02, 00:33:05,VALID,1009.53,VALID,0,VALID,104,VALID,0,VALID,24.0058,VALID,325,VALID,0.215234,
2013-03-02, 00:34:05,VALID,1009.51,VALID,0,VALID,104,VALID,0,VALID,23.9455,VALID,323,VALID,0.0242187,
2013-03-02, 00:35:05,VALID,1009.47,VALID,0,VALID,104,VALID,0,VALID,23.9668,VALID,324,VALID,0,
2013-03-02, 00:36:05,VALID,1009.47,VALID,0,VALID,104,VALID,0,VALID,23.9473,VALID,324,VALID,0,
2013-03-02, 00:37:05,VALID,1009.45,VALID,0,VALID,104,VALID,0,VALID,23.9278,VALID,324,VALID,0,
2013-03-02, 00:38:05,VALID,1009.46,VALID,0,VALID,104,VALID,0,VALID,23.9065,VALID,324,VALID,0,
2013-03-02, 00:39:05,VALID,1009.4,VALID,0,VALID,104,VALID,0,VALID,23.9278,VALID,323,VALID,0.103125,
2013-03-02, 00:40:05,VALID,1009.39,VALID,0,VALID,104,VALID,0,VALID,23.8871,VALID,324,VALID,0.0742188,
2013-03-02, 00:41:05,VALID,1009.4,VALID,0,VALID,104,VALID,0,VALID,23.8871,VALID,324,VALID,0,
2013-03-02, 00:42:05,VALID,1009.38,VALID,0,VALID,104,VALID,0.112112,VALID,23.9278,VALID,323,VALID,0,
2013-03-02, 00:43:05,VALID,1009.38,VALID,0,VALID,104,VALID,0,VALID,23.9278,VALID,324,VALID,0,
2013-03-02, 00:44:05,VALID,1009.38,VALID,0,VALID,104,VALID,0,VALID,23.9473,VALID,324,VALID,0,
2013-03-02, 00:45:05,VALID,1009.35,VALID,0,VALID,104,VALID,0,VALID,23.9473,VALID,324,VALID,0,
2013-03-02, 00:46:05,VALID,1009.35,VALID,0,VALID,104,VALID,0,VALID,23.9668,VALID,324,VALID,0,
2013-03-02, 00:47:05,VALID,1009.34,VALID,0,VALID,104,VALID,0,VALID,23.965,VALID,324,VALID,0,
2013-03-02, 00:48:05,VALID,1009.32,VALID,0,VALID,104,VALID,0,VALID,23.965,VALID,324,VALID,0,
2013-03-02, 00:49:05,VALID,1009.31,VALID,0,VALID,104,VALID,0,VALID,23.9863,VALID,324,VALID,0,
2013-03-02, 00:50:05,VALID,1009.3,VALID,0,VALID,104,VALID,0,VALID,23.9863,VALID,323,VALID,0,
2013-03-02, 00:51:05,VALID,1009.28,VALID,0,VALID,104,VALID,0,VALID,23.9845,VALID,323,VALID,0,
2013-03-02, 00:52:05,VALID,1009.26,VALID,0,VALID,104,VALID,0,VALID,23.9863,VALID,324,VALID,0,
2013-03-02, 00:53:05,VALID,1009.23,VALID,0,VALID,104,VALID,0,VALID,23.965,VALID,323,VALID,0,
2013-03-02, 00:54:05,VALID,1009.22,VALID,0,VALID,104,VALID,0,VALID,23.9668,VALID,324,VALID,0,
2013-03-02, 00:55:05,VALID,1009.22,VALID,0,VALID,104,VALID,0,VALID,23.9473,VALID,324,VALID,0,
2013-03-02, 00:56:05,VALID,1009.21,VALID,0,VALID,104,VALID,0,VALID,23.9278,VALID,324,VALID,0,
2013-03-02, 00:57:05,VALID,1009.21,VALID,0,VALID,104,VALID,0.112112,VALID,23.9278,VALID,324,VALID,0,
2013-03-02, 00:58:05,VALID,1009.2,VALID,0,VALID,104,VALID,0,VALID,23.9278,VALID,324,VALID,0.126953,
2013-03-02, 00:59:05,VALID,1009.17,VALID,0,VALID,104,VALID,0.112112,VALID,23.9065,VALID,323,VALID,0.200781,
2013-03-02, 01:00:05,VALID,1009.16,VALID,0,VALID,104,VALID,0.112112,VALID,23.9065,VALID,324,VALID,0.140234,
2013-03-02, 01:01:05,VALID,1009.18,VALID,0,VALID,104,VALID,0,VALID,23.8871,VALID,324,VALID,0.235938,
2013-03-02, 01:02:05,VALID,1009.17,VALID,0,VALID,104,VALID,0.112112,VALID,23.8871,VALID,323,VALID,0.249609,
2013-03-02, 01:03:05,VALID,1009.19,VALID,0,VALID,104,VALID,0,VALID,23.9065,VALID,323,VALID,0.223047,
2013-03-02, 01:04:05,VALID,1009.19,VALID,0,VALID,104,VALID,0,VALID,23.9278,VALID,324,VALID,0.341016,
2013-03-02, 01:05:05,VALID,1009.23,VALID,0,VALID,104,VALID,0,VALID,23.9065,VALID,324,VALID,0.0738281,
2013-03-02, 01:06:05,VALID,1009.25,VALID,0,VALID,104,VALID,0,VALID,23.9065,VALID,324,VALID,0.0324219,
2013-03-02, 01:07:05,VALID,1009.23,VALID,0,VALID,104,VALID,0,VALID,23.926,VALID,324,VALID,0,
2013-03-02, 01:08:05,VALID,1009.23,VALID,0,VALID,104,VALID,0,VALID,23.926,VALID,323,VALID,0,
2013-03-02, 01:09:05,VALID,1009.25,VALID,0,VALID,104,VALID,0,VALID,23.926,VALID,324,VALID,0,
2013-03-02, 01:10:05,VALID,1009.21,VALID,0,VALID,104,VALID,0,VALID,23.9473,VALID,324,VALID,0,
2013-03-02, 01:11:05,VALID,1009.19,VALID,0,VALID,104,VALID,0,VALID,23.9065,VALID,324,VALID,0,
2013-03-02, 01:12:05,VALID,1009.16,VALID,0,VALID,104,VALID,0,VALID,23.9278,VALID,324,VALID,0,
2013-03-02, 01:13:05,VALID,1009.15,VALID,0,VALID,104,VALID,0.112112,VALID,23.8871,VALID,324,VALID,0,
2013-03-02, 01:14:05,VALID,1009.14,VALID,0,VALID,104,VALID,0,VALID,23.9084,VALID,324,VALID,0,
2013-03-02, 01:15:05,VALID,1009.13,VALID,0,VALID,104,VALID,0.112112,VALID,23.9084,VALID,324,VALID,0,
2013-03-02, 01:16:05,VALID,1009.15,VALID,0,VALID,104,VALID,0.112112,VALID,23.8676,VALID,324,VALID,0.0585938,
2013-03-02, 01:17:05,VALID,1009.15,VALID,0,VALID,104,VALID,0,VALID,23.8889,VALID,324,VALID,0,
2013-03-02, 01:18:05,VALID,1009.16,VALID,0,VALID,104,VALID,0,VALID,23.8694,VALID,324,VALID,0,
2013-03-02, 01:19:05,VALID,1009.14,VALID,0,VALID,104,VALID,0,VALID,23.8481,VALID,324,VALID,0,
2013-03-02, 01:20:05,VALID,1009.13,VALID,0,VALID,104,VALID,0,VALID,23.8694,VALID,324,VALID,0.0292969,
2013-03-02, 01:21:05,VALID,1009.13,VALID,0,VALID,104,VALID,0,VALID,23.8499,VALID,324,VALID,0,
2013-03-02, 01:22:05,VALID,1009.1,VALID,0,VALID,104,VALID,0,VALID,23.8499,VALID,324,VALID,0,
2013-03-02, 01:23:05,VALID,1009.06,VALID,0,VALID,104,VALID,0,VALID,23.8481,VALID,324,VALID,0,
2013-03-02, 01:24:05,VALID,1009.07,VALID,0,VALID,104,VALID,0,VALID,23.8481,VALID,324,VALID,0,
2013-03-02, 01:25:05,VALID,1009.06,VALID,0,VALID,104,VALID,0,VALID,23.8694,VALID,323,VALID,0,
2013-03-02, 01:26:05,VALID,1009.06,VALID,0,VALID,104,VALID,0,VALID,23.8889,VALID,325,VALID,0.028125,
2013-03-02, 01:27:05,VALID,1009.09,VALID,0,VALID,104,VALID,0,VALID,23.8871,VALID,324,VALID,0.000390625,
2013-03-02, 01:28:05,VALID,1009.1,VALID,0,VALID,104,VALID,0,VALID,23.9084,VALID,324,VALID,0,
2013-03-02, 01:29:05,VALID,1009.09,VALID,0,VALID,104,VALID,0,VALID,23.8676,VALID,323,VALID,0,
2013-03-02, 01:30:05,VALID,1009.1,VALID,0,VALID,104,VALID,0,VALID,23.8889,VALID,324,VALID,0,
2013-03-02, 01:31:05,VALID,1009.1,VALID,0,VALID,104,VALID,0,VALID,23.8481,VALID,324,VALID,0.195313,
2013-03-02, 01:32:05,VALID,1009.11,VALID,0,VALID,104,VALID,0,VALID,23.8304,VALID,324,VALID,0.278906,
2013-03-02, 01:33:05,VALID,1009.11,VALID,0,VALID,104,VALID,0,VALID,23.7701,VALID,324,VALID,0.210547,
2013-03-02, 01:34:05,VALID,1009.09,VALID,0,VALID,104,VALID,0,VALID,23.7701,VALID,324,VALID,0.227734,
2013-03-02, 01:35:05,VALID,1009.09,VALID,0,VALID,104,VALID,0,VALID,23.772,VALID,324,VALID,0.1625,
2013-03-02, 01:36:05,VALID,1009.09,VALID,0,VALID,104,VALID,0,VALID,23.7507,VALID,324,VALID,0.0761719,
2013-03-02, 01:37:05,VALID,1009.11,VALID,0,VALID,104,VALID,0,VALID,23.7525,VALID,324,VALID,0.122656,
2013-03-02, 01:38:05,VALID,1009.06,VALID,0,VALID,104,VALID,0,VALID,23.7312,VALID,324,VALID,0.117969,
2013-03-02, 01:39:05,VALID,1009.06,VALID,0,VALID,104,VALID,0,VALID,23.7525,VALID,324,VALID,0.090625,
2013-03-02, 01:40:05,VALID,1009.03,VALID,0,VALID,104,VALID,0,VALID,23.7525,VALID,324,VALID,0,
2013-03-02, 01:41:05,VALID,1009.03,VALID,0,VALID,104,VALID,0,VALID,23.7525,VALID,324,VALID,0,
2013-03-02, 01:42:05,VALID,1009.01,VALID,0,VALID,104,VALID,0,VALID,23.733,VALID,324,VALID,0,
2013-03-02, 01:43:05,VALID,1009.03,VALID,0,VALID,104,VALID,0,VALID,23.7525,VALID,324,VALID,0,
2013-03-02, 01:44:05,VALID,1009.03,VALID,0,VALID,104,VALID,0.112112,VALID,23.7117,VALID,324,VALID,0,
2013-03-02, 01:45:05,VALID,1009.06,VALID,0,VALID,104,VALID,0,VALID,23.733,VALID,324,VALID,0,
2013-03-02, 01:46:05,VALID,1009.04,VALID,0,VALID,104,VALID,0,VALID,23.7135,VALID,324,VALID,0,
2013-03-02, 01:47:05,VALID,1009.05,VALID,0,VALID,104,VALID,0.112112,VALID,23.694,VALID,324,VALID,0,
2013-03-02, 01:48:05,VALID,1009.05,VALID,0,VALID,104,VALID,0,VALID,23.6745,VALID,324,VALID,0,
2013-03-02, 01:49:05,VALID,1009.04,VALID,0,VALID,104,VALID,0,VALID,23.694,VALID,324,VALID,0.118359,
2013-03-02, 01:50:04,VALID,1009.03,VALID,0,VALID,104,VALID,0,VALID,23.7135,VALID,324,VALID,0.148828,
2013-03-02, 01:51:04,VALID,1009.02,VALID,0,VALID,104,VALID,0,VALID,23.7525,VALID,324,VALID,0.0414063,
2013-03-02, 01:52:04,VALID,1009.02,VALID,0,VALID,104,VALID,0,VALID,23.7507,VALID,324,VALID,0,
2013-03-02, 01:53:04,VALID,1008.99,VALID,0,VALID,104,VALID,0.112112,VALID,23.7701,VALID,324,VALID,0,
2013-03-02, 01:54:04,VALID,1009.03,VALID,0,VALID,104,VALID,0.112112,VALID,23.7701,VALID,324,VALID,0,
2013-03-02, 01:55:04,VALID,1009.04,VALID,0,VALID,104,VALID,0.112112,VALID,23.7701,VALID,324,VALID,0.185547,
2013-03-02, 01:56:04,VALID,1009.08,VALID,0,VALID,104,VALID,0.112112,VALID,23.7525,VALID,324,VALID,0,
2013-03-02, 01:57:04,VALID,1009.09,VALID,0,VALID,104,VALID,0,VALID,23.7525,VALID,324,VALID,0,
2013-03-02, 01:58:04,VALID,1009.14,VALID,0,VALID,104,VALID,0,VALID,23.6727,VALID,324,VALID,0.107813,
2013-03-02, 01:59:04,VALID,1009.14,VALID,0,VALID,104,VALID,0,VALID,23.6338,VALID,324,VALID,0.230078,
2013-03-02, 02:00:04,VALID,1009.18,VALID,0,VALID,104,VALID,0.112112,VALID,23.5948,VALID,324,VALID,0.2375,
2013-03-02, 02:01:04,VALID,1009.17,VALID,0,VALID,104,VALID,0.112112,VALID,23.6161,VALID,324,VALID,0.171875,
2013-03-02, 02:02:04,VALID,1009.16,VALID,0,VALID,104,VALID,0.112112,VALID,23.5948,VALID,324,VALID,0.144922,
2013-03-02, 02:03:04,VALID,1009.14,VALID,0,VALID,104,VALID,0,VALID,23.5948,VALID,324,VALID,0,
2013-03-02, 02:04:04,VALID,1009.13,VALID,0,VALID,104,VALID,0,VALID,23.5948,VALID,324,VALID,0,
2013-03-02, 02:05:04,VALID,1009.12,VALID,0,VALID,104,VALID,0,VALID,23.5948,VALID,324,VALID,0,
2013-03-02, 02:06:04,VALID,1009.12,VALID,0,VALID,104,VALID,0.112112,VALID,23.6161,VALID,324,VALID,0,
2013-03-02, 02:07:04,VALID,1009.09,VALID,0,VALID,104,VALID,0.112112,VALID,23.5966,VALID,324,VALID,0,
2013-03-02, 02:08:04,VALID,1009.13,VALID,0,VALID,104,VALID,0,VALID,23.6161,VALID,324,VALID,0,
2013-03-02, 02:09:04,VALID,1009.08,VALID,0,VALID,104,VALID,0,VALID,23.655,VALID,324,VALID,0,
2013-03-02, 02:10:04,VALID,1009.08,VALID,0,VALID,104,VALID,0,VALID,23.6727,VALID,324,VALID,0,
2013-03-02, 02:11:04,VALID,1009.09,VALID,0,VALID,104,VALID,0.112112,VALID,23.6922,VALID,324,VALID,0,
2013-03-02, 02:12:04,VALID,1009.08,VALID,0,VALID,104,VALID,0,VALID,23.7117,VALID,324,VALID,0,
2013-03-02, 02:13:04,VALID,1009.08,VALID,0,VALID,104,VALID,0.112112,VALID,23.772,VALID,324,VALID,0,
2013-03-02, 02:14:04,VALID,1009.12,VALID,0,VALID,104,VALID,0,VALID,23.7507,VALID,324,VALID,0,
2013-03-02, 02:15:04,VALID,1009.11,VALID,0,VALID,104,VALID,0.112112,VALID,23.7525,VALID,324,VALID,0,
2013-03-02, 02:16:04,VALID,1009.14,VALID,0,VALID,104,VALID,0,VALID,23.6922,VALID,324,VALID,0,
2013-03-02, 02:17:04,VALID,1009.16,VALID,0,VALID,104,VALID,0,VALID,23.7117,VALID,324,VALID,0,
2013-03-02, 02:18:04,VALID,1009.18,VALID,0,VALID,104,VALID,0.112112,VALID,23.694,VALID,324,VALID,0,
2013-03-02, 02:19:04,VALID,1009.21,VALID,0,VALID,104,VALID,0,VALID,23.6143,VALID,324,VALID,0,
2013-03-02, 02:20:04,VALID,1009.19,VALID,0,VALID,104,VALID,0,VALID,23.5753,VALID,324,VALID,0,
2013-03-02, 02:21:04,VALID,1009.19,VALID,0,VALID,104,VALID,0.112112,VALID,23.5753,VALID,324,VALID,0,
2013-03-02, 02:22:04,VALID,1009.2,VALID,0,VALID,104,VALID,0.112112,VALID,23.5558,VALID,324,VALID,0,
2013-03-02, 02:23:04,VALID,1009.16,VALID,0,VALID,104,VALID,0,VALID,23.5558,VALID,324,VALID,0,
2013-03-02, 02:24:04,VALID,1009.19,VALID,0,VALID,104,VALID,0.112112,VALID,23.5558,VALID,324,VALID,0,
2013-03-02, 02:25:04,VALID,1009.17,VALID,0,VALID,104,VALID,0.112112,VALID,23.5363,VALID,324,VALID,0,
2013-03-02, 02:26:04,VALID,1009.2,VALID,0,VALID,104,VALID,0,VALID,23.5363,VALID,324,VALID,0,
2013-03-02, 02:27:04,VALID,1009.19,VALID,0,VALID,104,VALID,0.112112,VALID,23.5363,VALID,324,VALID,0,
2013-03-02, 02:28:04,VALID,1009.18,VALID,0,VALID,104,VALID,0,VALID,23.5381,VALID,324,VALID,0,
2013-03-02, 02:29:04,VALID,1009.22,VALID,0,VALID,104,VALID,0.112112,VALID,23.5169,VALID,324,VALID,0,
2013-03-02, 02:30:04,VALID,1009.22,VALID,0,VALID,104,VALID,0,VALID,23.5381,VALID,324,VALID,0,
2013-03-02, 02:31:04,VALID,1009.23,VALID,0,VALID,104,VALID,0,VALID,23.5381,VALID,324,VALID,0,
2013-03-02, 02:32:04,VALID,1009.28,VALID,0,VALID,104,VALID,0,VALID,23.5363,VALID,324,VALID,0,
2013-03-02, 02:33:04,VALID,1009.28,VALID,0,VALID,104,VALID,0.112112,VALID,23.5363,VALID,324,VALID,0,
2013-03-02, 02:34:04,VALID,1009.32,VALID,0,VALID,104,VALID,0.112112,VALID,23.5771,VALID,324,VALID,0,
2013-03-02, 02:35:04,VALID,1009.3,VALID,0,VALID,104,VALID,0.112112,VALID,23.5576,VALID,324,VALID,0,
2013-03-02, 02:36:04,VALID,1009.31,VALID,0,VALID,104,VALID,0,VALID,23.5381,VALID,324,VALID,0,
2013-03-02, 02:37:04,VALID,1009.3,VALID,0,VALID,104,VALID,0,VALID,23.5381,VALID,324,VALID,0,
2013-03-02, 02:38:04,VALID,1009.28,VALID,0,VALID,104,VALID,0,VALID,23.5381,VALID,324,VALID,0,
2013-03-02, 02:39:04,VALID,1009.3,VALID,0,VALID,104,VALID,0,VALID,23.5169,VALID,324,VALID,0,
2013-03-02, 02:40:04,VALID,1009.27,VALID,0,VALID,104,VALID,0,VALID,23.5576,VALID,324,VALID,0,
2013-03-02, 02:41:04,VALID,1009.31,VALID,0,VALID,104,VALID,0,VALID,23.5576,VALID,324,VALID,0.0894531,
2013-03-02, 02:42:04,VALID,1009.32,VALID,0,VALID,104,VALID,0,VALID,23.5363,VALID,324,VALID,0.295703,
2013-03-02, 02:43:04,VALID,1009.3,VALID,0,VALID,104,VALID,0.112112,VALID,23.5381,VALID,324,VALID,0.302734,
2013-03-02, 02:44:04,VALID,1009.29,VALID,0,VALID,104,VALID,0,VALID,23.5186,VALID,324,VALID,0.418359,
2013-03-02, 02:45:04,VALID,1009.31,VALID,0,VALID,104,VALID,0.112112,VALID,23.5576,VALID,323,VALID,0.421094,
2013-03-02, 02:46:04,VALID,1009.28,VALID,0,VALID,104,VALID,0,VALID,23.5966,VALID,325,VALID,0.194531,
2013-03-02, 02:47:04,VALID,1009.28,VALID,0,VALID,104,VALID,0,VALID,23.5771,VALID,325,VALID,0.188672,
2013-03-02, 02:48:04,VALID,1009.29,VALID,0,VALID,104,VALID,0.112112,VALID,23.5948,VALID,324,VALID,0.205078,
2013-03-02, 02:49:04,VALID,1009.27,VALID,0,VALID,104,VALID,0,VALID,23.5966,VALID,324,VALID,0.147656,
2013-03-02, 02:50:04,VALID,1009.26,VALID,0,VALID,104,VALID,0,VALID,23.5966,VALID,324,VALID,0,
2013-03-02, 02:51:04,VALID,1009.27,VALID,0,VALID,104,VALID,0,VALID,23.5771,VALID,324,VALID,0,
2013-03-02, 02:52:04,VALID,1009.25,VALID,0,VALID,104,VALID,0,VALID,23.5771,VALID,324,VALID,0,
2013-03-02, 02:53:04,VALID,1009.24,VALID,0,VALID,104,VALID,0.112112,VALID,23.5576,VALID,324,VALID,0,
2013-03-02, 02:54:04,VALID,1009.27,VALID,0,VALID,104,VALID,0,VALID,23.5576,VALID,324,VALID,0.166406,
2013-03-02, 02:55:04,VALID,1009.26,VALID,0,VALID,104,VALID,0,VALID,23.5576,VALID,324,VALID,0.040625,
2013-03-02, 02:56:04,VALID,1009.3,VALID,0,VALID,104,VALID,0,VALID,23.5381,VALID,323,VALID,0.0621094,
2013-03-02, 02:57:04,VALID,1009.31,VALID,0,VALID,104,VALID,0,VALID,23.5186,VALID,324,VALID,0.137891,
2013-03-02, 02:58:04,VALID,1009.3,VALID,0,VALID,104,VALID,0,VALID,23.5381,VALID,324,VALID,0.0664063,
2013-03-02, 02:59:04,VALID,1009.32,VALID,0,VALID,104,VALID,0,VALID,23.5186,VALID,323,VALID,0.00078125,
2013-03-02, 03:00:04,VALID,1009.31,VALID,0,VALID,104,VALID,0.112112,VALID,23.5186,VALID,324,VALID,0,
2013-03-02, 03:01:04,VALID,1009.35,VALID,0,VALID,104,VALID,0,VALID,23.4974,VALID,324,VALID,0,
2013-03-02, 03:02:04,VALID,1009.35,VALID,0,VALID,104,VALID,0,VALID,23.4974,VALID,323,VALID,0,
2013-03-02, 03:03:04,VALID,1009.37,VALID,0,VALID,104,VALID,0,VALID,23.5186,VALID,324,VALID,0,
2013-03-02, 03:04:04,VALID,1009.36,VALID,0,VALID,104,VALID,0,VALID,23.4974,VALID,324,VALID,0,
2013-03-02, 03:05:04,VALID,1009.38,VALID,0,VALID,104,VALID,0,VALID,23.4992,VALID,323,VALID,0,
2013-03-02, 03:06:04,VALID,1009.37,VALID,0,VALID,104,VALID,0,VALID,23.5186,VALID,323,VALID,0,
2013-03-02, 03:07:04,VALID,1009.34,VALID,0,VALID,104,VALID,0,VALID,23.4992,VALID,323,VALID,0,
2013-03-02, 03:08:04,VALID,1009.35,VALID,0,VALID,104,VALID,0.112112,VALID,23.4779,VALID,324,VALID,0,
2013-03-02, 03:09:04,VALID,1009.32,VALID,0,VALID,104,VALID,0.112112,VALID,23.4992,VALID,324,VALID,0,
2013-03-02, 03:10:04,VALID,1009.31,VALID,0,VALID,104,VALID,0,VALID,23.4992,VALID,324,VALID,0,
2013-03-02, 03:11:04,VALID,1009.34,VALID,0,VALID,104,VALID,0.112112,VALID,23.4974,VALID,324,VALID,0.171484,
2013-03-02, 03:12:04,VALID,1009.33,VALID,0,VALID,104,VALID,0.112112,VALID,23.5186,VALID,324,VALID,0.122656,
2013-03-02, 03:13:04,VALID,1009.34,VALID,0,VALID,104,VALID,0.112112,VALID,23.5186,VALID,323,VALID,0.228906,
2013-03-02, 03:14:04,VALID,1009.37,VALID,0,VALID,104,VALID,0,VALID,23.5186,VALID,325,VALID,0.237891,
2013-03-02, 03:15:04,VALID,1009.36,VALID,0,VALID,104,VALID,0,VALID,23.5186,VALID,324,VALID,0.283203,
2013-03-02, 03:16:04,VALID,1009.43,VALID,0,VALID,104,VALID,0,VALID,23.5381,VALID,324,VALID,0.176563,
2013-03-02, 03:17:04,VALID,1009.41,VALID,0,VALID,104,VALID,0,VALID,23.5169,VALID,324,VALID,0.065625,
2013-03-02, 03:18:04,VALID,1009.41,VALID,0,VALID,104,VALID,0,VALID,23.5363,VALID,324,VALID,0.153125,
2013-03-02, 03:19:04,VALID,1009.41,VALID,0,VALID,104,VALID,0,VALID,23.5576,VALID,324,VALID,0,
2013-03-02, 03:20:04,VALID,1009.4,VALID,0,VALID,104,VALID,0,VALID,23.5381,VALID,324,VALID,0,
2013-03-02, 03:21:04,VALID,1009.41,VALID,0,VALID,104,VALID,0.112112,VALID,23.4974,VALID,324,VALID,0,
2013-03-02, 03:22:04,VALID,1009.39,VALID,0,VALID,104,VALID,0,VALID,23.4974,VALID,324,VALID,0.243359,
2013-03-02, 03:23:04,VALID,1009.38,VALID,0,VALID,104,VALID,0,VALID,23.4797,VALID,324,VALID,0.195313,
2013-03-02, 03:24:04,VALID,1009.39,VALID,0,VALID,104,VALID,0,VALID,23.4407,VALID,324,VALID,0.221875,
2013-03-02, 03:25:04,VALID,1009.39,VALID,0,VALID,104,VALID,0,VALID,23.4602,VALID,324,VALID,0.224219,
2013-03-02, 03:26:04,VALID,1009.4,VALID,0,VALID,104,VALID,0,VALID,23.4584,VALID,324,VALID,0.282422,
2013-03-02, 03:27:04,VALID,1009.41,VALID,0,VALID,104,VALID,0,VALID,23.4584,VALID,324,VALID,0.132813,
2013-03-02, 03:28:04,VALID,1009.41,VALID,0,VALID,104,VALID,0,VALID,23.4407,VALID,324,VALID,0.174219,
2013-03-02, 03:29:04,VALID,1009.41,VALID,0,VALID,104,VALID,0,VALID,23.4407,VALID,324,VALID,0,
2013-03-02, 03:30:04,VALID,1009.4,VALID,0,VALID,104,VALID,0,VALID,23.4407,VALID,324,VALID,0,
2013-03-02, 03:31:04,VALID,1009.41,VALID,0,VALID,104,VALID,0,VALID,23.4407,VALID,324,VALID,0,
2013-03-02, 03:32:04,VALID,1009.42,VALID,0,VALID,104,VALID,0,VALID,23.4992,VALID,324,VALID,0,
2013-03-02, 03:33:04,VALID,1009.38,VALID,0,VALID,104,VALID,0,VALID,23.5186,VALID,324,VALID,0.183984,
2013-03-02, 03:34:04,VALID,1009.38,VALID,0,VALID,104,VALID,0,VALID,23.4992,VALID,324,VALID,0.204297,
2013-03-02, 03:35:04,VALID,1009.41,VALID,0,VALID,104,VALID,0,VALID,23.4797,VALID,324,VALID,0.251172,
2013-03-02, 03:36:04,VALID,1009.41,VALID,0,VALID,104,VALID,0,VALID,23.4407,VALID,324,VALID,0.0992187,
2013-03-02, 03:37:04,VALID,1009.42,VALID,0,VALID,104,VALID,0,VALID,23.4407,VALID,324,VALID,0.0863281,
2013-03-02, 03:38:04,VALID,1009.42,VALID,0,VALID,104,VALID,0.112112,VALID,23.4212,VALID,324,VALID,0.0878906,
2013-03-02, 03:39:04,VALID,1009.43,VALID,0,VALID,104,VALID,0,VALID,23.4017,VALID,324,VALID,0,
2013-03-02, 03:40:04,VALID,1009.41,VALID,0,VALID,104,VALID,0,VALID,23.4212,VALID,324,VALID,0,
2013-03-02, 03:41:04,VALID,1009.46,VALID,0,VALID,104,VALID,0,VALID,23.4212,VALID,324,VALID,0,
2013-03-02, 03:42:04,VALID,1009.46,VALID,0,VALID,104,VALID,0,VALID,23.4017,VALID,324,VALID,0.212109,
2013-03-02, 03:43:04,VALID,1009.46,VALID,0,VALID,104,VALID,0,VALID,23.3823,VALID,324,VALID,0.375781,
2013-03-02, 03:44:04,VALID,1009.49,VALID,0,VALID,104,VALID,0.112112,VALID,23.4017,VALID,324,VALID,0.382813,
2013-03-02, 03:45:04,VALID,1009.51,VALID,0,VALID,104,VALID,0,VALID,23.4017,VALID,324,VALID,0.284375,
2013-03-02, 03:46:04,VALID,1009.5,VALID,0,VALID,104,VALID,0,VALID,23.3823,VALID,324,VALID,0.224219,
2013-03-02, 03:47:04,VALID,1009.51,VALID,0,VALID,104,VALID,0,VALID,23.3628,VALID,324,VALID,0.181641,
2013-03-02, 03:48:04,VALID,1009.52,VALID,0,VALID,104,VALID,0,VALID,23.3645,VALID,324,VALID,0.23125,
2013-03-02, 03:49:04,VALID,1009.5,VALID,0,VALID,104,VALID,0,VALID,23.3238,VALID,324,VALID,0.0414063,
2013-03-02, 03:50:04,VALID,1009.54,VALID,0,VALID,104,VALID,0,VALID,23.3238,VALID,324,VALID,0,
2013-03-02, 03:51:04,VALID,1009.53,VALID,0,VALID,104,VALID,0,VALID,23.3043,VALID,324,VALID,0.159375,
2013-03-02, 03:52:04,VALID,1009.56,VALID,0,VALID,104,VALID,0,VALID,23.3256,VALID,324,VALID,0.209766,
2013-03-02, 03:53:04,VALID,1009.56,VALID,0,VALID,104,VALID,0,VALID,23.3043,VALID,324,VALID,0,
2013-03-02, 03:54:04,VALID,1009.58,VALID,0,VALID,104,VALID,0,VALID,23.3451,VALID,324,VALID,0.291016,
2013-03-02, 03:55:04,VALID,1009.6,VALID,0,VALID,104,VALID,0,VALID,23.3433,VALID,324,VALID,0.0746094,
2013-03-02, 03:56:04,VALID,1009.61,VALID,0,VALID,104,VALID,0,VALID,23.3433,VALID,324,VALID,0.110937,
2013-03-02, 03:57:04,VALID,1009.6,VALID,0,VALID,104,VALID,0,VALID,23.3645,VALID,324,VALID,0.146094,
2013-03-02, 03:58:04,VALID,1009.62,VALID,0,VALID,104,VALID,0,VALID,23.3645,VALID,324,VALID,0,
2013-03-02, 03:59:04,VALID,1009.63,VALID,0,VALID,104,VALID,0,VALID,23.3433,VALID,324,VALID,0,